This demonstration page uses our WeatherBlox Daily Observations layout. Learn more.

Left ArrowRight Arrow

Hourly Observations for December 8, 2019

Temp ( °F °C ) Dew Point ( °F °C ) Humidity (%) Winds ( mph kmh ) Pressure ( in mb ) Visibility ( mi km ) Precip ( " mm )
12:56 am 00:56 Mostly Cloudy 41 5 27 -3 57 57 SSE 6 9 29.88 1012 10 16 0.00 0.00
1:56 am 01:56 Partly Cloudy 39 4 27 -3 61 61 SSE 6 9 29.86 1011 10 16 0.00 0.00
2:56 am 02:56 Clear 37 3 27 -3 65 65 SE 3 6 29.86 1011 10 16 0.00 0.00
3:56 am 03:56 Clear 36 2 27 -3 70 70 Calm 29.85 1011 10 16 0.00 0.00
4:56 am 04:56 Clear 34 1 27 -3 75 75 E 3 6 29.84 1011 10 16 0.00 0.00
5:56 am 05:56 Mostly Cloudy 34 1 28 -2 81 81 Calm 29.84 1011 10 16 0.00 0.00
7:56 am 07:56 Mostly Cloudy 34 1 28 -2 81 81 E 3 6 29.82 1010 10 16 0.00 0.00
8:56 am 08:56 Partly Cloudy 34 1 28 -2 81 81 Calm 29.83 1010 10 16 0.00 0.00
9:56 am 09:56 Mostly Cloudy 36 2 28 -2 75 75 SSE 3 6 29.84 1011 10 16 0.00 0.00
10:56 am 10:56 Partly Cloudy 39 4 30 -1 70 70 Calm 29.82 1010 10 16 0.00 0.00
11:56 am 11:56 Partly Cloudy 43 6 30 -1 61 61 Calm 29.79 1009 10 16 0.00 0.00
12:56 pm 12:56 Partly Cloudy 45 7 30 -1 57 57 Calm 29.76 1008 10 16 0.00 0.00
1:56 pm 13:56 Mostly Cloudy 45 7 30 -1 57 57 SE 5 7 29.73 1007 10 16 0.00 0.00
2:56 pm 14:56 Mostly Cloudy 46 8 32 0 57 57 SSE 5 7 29.72 1007 10 16 0.00 0.00
3:56 pm 15:56 Mostly Cloudy 45 7 32 0 61 61 SSE 5 7 29.74 1007 10 16 0.00 0.00
4:56 pm 16:56 Mostly Cloudy 43 6 32 0 66 66 E 5 7 29.72 1007 10 16 0.00 0.00
5:56 pm 17:56 Cloudy 41 5 34 1 76 76 ESE 5 7 29.73 1007 10 16 0.00 0.00
6:56 pm 18:56 Cloudy 41 5 32 0 70 70 Calm 29.72 1006 10 16 0.00 0.00
7:56 pm 19:56 Cloudy 39 4 32 0 75 75 Calm 29.71 1006 10 16 0.00 0.00
8:56 pm 20:56 Cloudy 39 4 34 1 81 81 Calm 29.70 1006 10 16 0.00 0.00
9:56 pm 21:56 Cloudy 37 3 34 1 87 87 E 3 6 29.68 1005 10 16 0.00 0.00
10:56 pm 22:56 Cloudy 37 3 34 1 87 87 E 5 7 29.64 1004 10 16 0.00 0.00
11:56 pm 23:56 Cloudy 37 3 34 1 87 87 ESE 7 11 29.63 1003 10 16 0.00 0.00

Powered by AerisWeather